cover

Weiss (UK) - Warp (Original Mix)

Get it on iTunes

Trackname / Key / BPM / Publish dateArtists, Remixers / Label
122 bpm, 11B / A major, 2017-09-15, Tech House,  2  52

Tracks in release Ibiza 2017 Closing Party

#Trackname / Key / BPM / Publish dateArtists, Remixers / Label
1 126 bpm, 11A / F# minor, 2017-09-15, Techno,  2  52
2 124 bpm, 10A / B minor, 2017-09-15, Tech House,  7  52
3 128 bpm, 8A / A minor, 2017-09-15, Tech House,  7  52
4 125 bpm, 7B / F major, 2017-09-15, Deep House,  2  52
5 122 bpm, 7B / F major, 2017-09-15, House,  0  52
6 124 bpm, 6A / G minor, 2017-09-15, Tech House,  3  52
7 129 bpm, 7B / F major, 2017-09-15, Techno,  5  52
8 125 bpm, 8A / A minor, 2017-09-15, Tech House,  4  52
9 125 bpm, 8B / C major, 2017-09-15, Tech House,  5  52
10 125 bpm, 8A / A minor, 2017-09-15, Tech House,  2  52
11 125 bpm, 10A / B minor, 2017-09-15, Tech House,  9  52
12 124 bpm, 8A / A minor, 2017-09-15, Tech House,  0  52
13 124 bpm, 8B / C major, 2017-09-15, Tech House,  3  52
14 125 bpm, 6B / Bb major, 2017-09-15, Tech House,  3  52
15 124 bpm, 6A / G minor, 2017-09-15, Deep House,  2  52
16 123 bpm, 3A / Bb minor, 2017-09-15, Tech House,  0  52
17 122 bpm, 11B / A major, 2017-09-15, Tech House,  2  52
18 125 bpm, 8A / A minor, 2017-09-15, Tech House,  6  52
19 124 bpm, 6B / Bb major, 2017-09-15, Tech House,  2  52
20 124 bpm, 8A / A minor, 2017-09-15, Tech House,  1  52
21 128 bpm, 11B / A major, 2017-09-15, House,  3  52
22 124 bpm, 9B / G major, 2017-09-15, Tech House,  0  52
23 124 bpm, 7A / D minor, 2017-09-15, Tech House,  7  52
24 130 bpm, 11B / A major, 2017-09-15, Tech House,  1  52
25 125 bpm, 8A / A minor, 2017-09-15, Tech House,  1  52
26 125 bpm, 10B / D major, 2017-09-15, Tech House,  1  52
27 122 bpm, 8A / A minor, 2017-09-15, Tech House,  1  52
28 123 bpm, 5A / C minor, 2017-09-15, Techno,  0  52
29 121 bpm, 2A / Eb minor, 2017-09-15, Deep House,  1  52
30 123 bpm, 5B / Eb major, 2017-09-15, House,  0  52
31 120 bpm, 7A / D minor, 2017-09-15, Progressive House,  0  52
32 124 bpm, 8A / A minor, 2017-09-15, Tech House,  1  52
33 122 bpm, 6B / Bb major, 2017-09-15, Tech House,  1  52
34 120 bpm, 8A / A minor, 2017-09-15, Tech House,  2  52
35 125 bpm, 8A / A minor, 2017-09-15, Tech House,  1  52
36 125 bpm, 10B / D major, 2017-09-15, Techno,  2  52
37 128 bpm, 7B / F major, 2017-09-15, Techno,  3  52
38 124 bpm, 7B / F major, 2017-09-15, Tech House,  4  52
39 125 bpm, 3A / Bb minor, 2017-09-15, Techno,  0  52
40 124 bpm, 10A / B minor, 2017-09-15, Tech House,  0  52
41 125 bpm, 11B / A major, 2017-09-15, Tech House,  0  52
42 124 bpm, 7B / F major, 2017-09-15, House,  0  52
43 124 bpm, 2A / Eb minor, 2017-09-15, Tech House,  0  52
44 121 bpm, 5A / C minor, 2017-09-15, Deep House,  0  52
45 124 bpm, 7A / D minor, 2017-09-15, Tech House,  0  52
46 125 bpm, 6A / G minor, 2017-09-15, Deep House,  3  52
47 124 bpm, 8A / A minor, 2017-09-15, Tech House,  2  52
48 123 bpm, 8A / A minor, 2017-09-15, Deep House,  0  52
49 125 bpm, 8A / A minor, 2017-09-15, Techno,  0  52
50 124 bpm, 8A / A minor, 2017-09-15, Tech House,  1  52
51 124 bpm, 8A / A minor, 2017-09-15, Tech House,  0  52
52 125 bpm, 8A / A minor, 2017-09-15, Tech House,  0  52

Recommendations

#Trackname / Key / BPM / Publish dateArtists, Remixers / Label
1 125 bpm, 7A / D minor, 2017-08-25, Tech House,  23  1   2
2 124 bpm, 3A / Bb minor, 2017-09-15, Tech House,  14  1   2
3 125 bpm, 11B / A major, 2017-05-29, House,  9  1   4
4 122 bpm, 7A / D minor, 2017-08-07, Progressive House,  4  1   3
5 124 bpm, 9B / G major, 2017-09-15, House,  3  1   8
6 124 bpm, 8A / A minor, 2017-07-06, Tech House,  3  1   2
7 125 bpm, 8A / A minor, 2017-07-10, House,  3  1   5
8 124 bpm, 8A / A minor, 2017-09-15, House,  2  1   5
9 124 bpm, 11B / A major, 2017-09-15, Tech House,  1  1   27
10 125 bpm, 8A / A minor, 2017-09-15, Tech House,  1  1   52

Charts

ArtistTitleGenresPublish date
Space Jump SaluteIbiza Closing ChartHouse, Tech House, Progressive House2017-09-19
sfsdfsdf dsafHuddersfield vs Newcastle Live StreamHard Dance, Tech House2017-08-20
Please wait...